Location: *
(12.5665°N, 8.3471°E)
Time: 10:52:15
(UTC+00:00)

BREEZE-M R/B - Pass Details

Date: 23 September 2019
Orbit: 308 x 4555 km, 49.7° (Epoch: 14 October)

Event Time Altitude Azimuth Distance (km) Brightness Sun altitude
Rises 04:39:43 0° 206° (SSW) 2,283 5.7 -9.6°
Reaches altitude 10° 04:41:19 10° 199° (SSW) 1,601 5.0 -9.2°
Maximum altitude 04:44:37 50° 122° (ESE) 822 4.1 -8.4°
Drops below altitude 10° 04:50:57 10° 48° (NE) 3,057 7.4 -6.9°
Sets 04:55:07 0° 44° (NE) 4,720 8.3 -5.9°
